This is the latest recevied weather packets stored in our database for station/object KU9TRY. If no packets are shown the sender has not sent any weather packets the latest 10 day(s).
| Time | Temp. | Humidity | Pressure | Rain* | Wind** | Luminosity | Snow |
|---|---|---|---|---|---|---|---|
| 1777604249 | 8.33° C | 89% | 1016.2 hPa | 0 mm | - | 0 W/m² | - |
| 1777603945 | 8.33° C | 87% | 1016.3 hPa | 0 mm | - | 0 W/m² | - |
| 1777603643 | 8.89° C | 87% | 1016.3 hPa | 0 mm | - | 0 W/m² | - |
| 1777603339 | 8.89° C | 86% | 1016.4 hPa | 0 mm | - | 0 W/m² | - |
| 1777603034 | 8.89° C | 85% | 1016.2 hPa | 0 mm | - | 0 W/m² | - |
| 1777602730 | 8.89° C | 85% | 1016.4 hPa | 0 mm | - | 0 W/m² | - |
| 1777602424 | 8.89° C | 84% | 1016.1 hPa | 0 mm | - | 0 W/m² | - |
| 1777602121 | 8.89° C | 83% | 1016.1 hPa | 0 mm | - | 0 W/m² | - |
| 1777601816 | 8.89° C | 83% | 1016.1 hPa | 0 mm | - | 0 W/m² | - |
| 1777601512 | 9.44° C | 82% | 1016.2 hPa | 0 mm | - | 0 W/m² | - |
| 1777601207 | 9.44° C | 83% | 1015.7 hPa | 0 mm | - | 0 W/m² | - |
| 1777600905 | 9.44° C | 81% | 1015.8 hPa | 0 mm | - | 0 W/m² | - |
| 1777600600 | 9.44° C | 80% | 1015.8 hPa | 0 mm | - | 0 W/m² | - |
| 1777600297 | 10° C | 77% | 1015.7 hPa | 0 mm | - | 0 W/m² | - |
| 1777599993 | 10.56° C | 76% | 1015.7 hPa | 0 mm | - | 0 W/m² | - |
| 1777599689 | 10.56° C | 74% | 1015.7 hPa | 0 mm | - | 0 W/m² | - |
| 1777599385 | 10.56° C | 75% | 1015.5 hPa | 0 mm | - | 0 W/m² | - |
| 1777599082 | 10.56° C | 73% | 1015.3 hPa | 0 mm | - | 0 W/m² | - |
| 1777598781 | 10.56° C | 73% | 1015.3 hPa | 0 mm | - | 0 W/m² | - |
| 1777598475 | 11.11° C | 72% | 1015.3 hPa | 0 mm | - | 0 W/m² | - |
| 1777598174 | 11.11° C | 69% | 1015.4 hPa | 0 mm | - | 0 W/m² | - |
| 1777597869 | 11.67° C | 73% | 1015.3 hPa | 0 mm | - | 0 W/m² | - |
| 1777597569 | 11.67° C | 68% | 1015.3 hPa | 0 mm | - | 0 W/m² | - |
| 1777597264 | 11.67° C | 66% | 1015.1 hPa | 0 mm | - | 0 W/m² | - |
| 1777596960 | 12.22° C | 65% | 1015.3 hPa | 0 mm | - | 0 W/m² | - |
* Rain latest hour (hover to see other rain measurements)
** Current wind speed in m/s (hover to see current wind gust speed)